Weather History for New York, NY

Change the Weather History Date:

Tuesday, August 5, 2014

  Actual Average Record
Temperature  
Mean Temperature 81 °F 78 °F  
Max Temperature 89 °F 85 °F 100 °F (1955)
Min Temperature 73 °F 70 °F 57 °F (1972)
Degree Days  
Heating Degree Days 0 0  
Month to date heating degree days 0 0  
Since 1 June heating degree days 0 16  
Since 1 July heating degree days 0 0  
Cooling Degree Days 16 12  
Month to date cooling degree days 54 64  
Year to date cooling degree days 718 746  
Since 1 June cooling degree days 668 680  
Growing Degree Days 31 (Base 50)    
Moisture  
Dew Point 63 °F    
Average Humidity 55    
Maximum Humidity 74    
Minimum Humidity 36    
Precipitation  
Precipitation 0.00 in 0.15 in 2.08 in (1967)
Month to date precipitation 0.47 0.76  
Year to date precipitation 32.03 26.89  
Snow  
Snow 0.00 in 0.00 in - ()
Month to date snowfall 0.0 0.0  
Since 1 July snowfall 0.0 0.0  
Snow Depth 0.00 in    
Sea Level Pressure  
Sea Level Pressure 29.98 in    
Wind  
Wind Speed 6 mph (SSW)    
Max Wind Speed 17 mph    
Max Gust Speed 21 mph    
Visibility 10 miles    
Events      
T = Trace of Precipitation, MM = Missing Value Source: NWS Daily Summary

Daily Weather History Graph

Daily Weather History Graph

Search for Another Location

Airport:

Trip Planner

Search our weather history database for the weather conditions in past years. The results will help you decide how hot, cold, wet, or windy it might be!

Date:

Astronomy

Aug. 05, 2014 Rise Set
Actual Time 5:55 AM EDT 8:06 PM EDT
Civil Twilight 5:25 AM EDT 8:36 PM EDT
Nautical Twilight 4:48 AM EDT 9:13 PM EDT
Astronomical Twilight 4:07 AM EDT 9:54 PM EDT
Moon 3:19 PM EDT (8/5) 12:41 AM EDT (8/5)
Length of Visible Light 15h 11m
Length of Day
14h 10m
Waxing Gibbous, 67% of the Moon is Illuminated
Aug 5
Waxing Gibbous
Aug 10
Full
Aug 17
Last Quarter
Aug 25
New
Sep 2
First Quarter

Hourly Weather History & Observations

Time (EDT) Temp. Heat Index Dew Point Humidity Pressure Visibility Wind Dir Wind Speed Gust Speed Precip Events Conditions
1:51 AM 75.2 °F - 64.4 °F 69% 30.03 in 10.0 mi Calm Calm - N/A   Mostly Cloudy
2:51 AM 75.9 °F - 63.0 °F 64% 30.02 in 10.0 mi Calm Calm - N/A   Mostly Cloudy
3:51 AM 75.9 °F - 63.0 °F 64% 30.02 in 10.0 mi Calm Calm - N/A   Scattered Clouds
4:51 AM 75.2 °F - 64.4 °F 69% 30.02 in 10.0 mi Calm Calm - N/A   Partly Cloudy
5:51 AM 73.0 °F - 64.0 °F 73% 30.02 in 10.0 mi NW 5.8 mph - N/A   Scattered Clouds
6:51 AM 73.9 °F - 64.0 °F 71% 30.03 in 10.0 mi WNW 3.5 mph - N/A   Partly Cloudy
7:51 AM 75.9 °F - 64.0 °F 67% 30.04 in 10.0 mi Calm Calm - N/A   Partly Cloudy
8:51 AM 77.0 °F - 64.0 °F 64% 30.04 in 10.0 mi NW 6.9 mph - N/A   Partly Cloudy
9:51 AM 81.0 °F 82.5 °F 64.0 °F 56% 30.04 in 10.0 mi Calm Calm - N/A   Partly Cloudy
10:51 AM 82.4 °F 83.9 °F 64.4 °F 54% 30.03 in 10.0 mi Variable 3.5 mph - N/A   Scattered Clouds
11:51 AM 84.0 °F 84.9 °F 63.0 °F 49% 30.02 in 10.0 mi NE 5.8 mph - N/A   Scattered Clouds
12:51 PM 86.0 °F 86.1 °F 61.0 °F 43% 29.99 in 10.0 mi Variable 4.6 mph - N/A   Partly Cloudy
1:51 PM 86.0 °F 86.1 °F 61.0 °F 43% 29.97 in 10.0 mi ENE 5.8 mph - N/A   Partly Cloudy
2:51 PM 87.1 °F 86.5 °F 59.0 °F 39% 29.95 in 10.0 mi NE 6.9 mph - N/A   Scattered Clouds
3:51 PM 87.1 °F 85.9 °F 57.0 °F 36% 29.92 in 10.0 mi Variable 5.8 mph - N/A   Scattered Clouds
4:51 PM 87.1 °F 87.5 °F 62.1 °F 43% 29.91 in 10.0 mi South 11.5 mph - N/A   Scattered Clouds
5:51 PM 84.0 °F 84.9 °F 63.0 °F 49% 29.91 in 10.0 mi SSE 11.5 mph - N/A   Scattered Clouds
6:51 PM 81.0 °F 82.2 °F 63.0 °F 54% 29.92 in 10.0 mi South 13.8 mph 20.7 mph N/A   Scattered Clouds
7:51 PM 80.1 °F 81.1 °F 61.0 °F 52% 29.91 in 10.0 mi South 9.2 mph - N/A   Scattered Clouds
8:51 PM 80.1 °F 81.5 °F 63.0 °F 56% 29.91 in 10.0 mi South 8.1 mph - N/A   Scattered Clouds
9:51 PM 79.0 °F - 64.0 °F 60% 29.91 in 10.0 mi SSW 8.1 mph - N/A   Scattered Clouds
10:51 PM 79.0 °F - 64.9 °F 62% 29.90 in 10.0 mi SW 6.9 mph - N/A   Mostly Cloudy
11:51 PM 75.9 °F - 64.0 °F 67% 29.91 in 10.0 mi North 13.8 mph - N/A   Mostly Cloudy